map of CDR home
Great Circle Mapper logo
CDR - Airport
Location
City:  Chadron, Nebraska, United States
Name:Chadron Municipal Airport
ICAO / IATA:KCDR / CDR
FAA:CDR

Details
Type:Airport (Part 139 Class III)
Use:Public/Civil
Latitude:4250'15"N (42.837558)
Longitude:10305'43"W (-103.095401)
Datum:WGS 1984
Elevation:3297 ft (1005 m)
Runways:2
Longest:5998 × 100 ft (1828 × 30.5 m), paved

Time
Time Zone:UTC-7 (DST-6)
Local Time:

Weather
METAR:KCDR 030153Z AUTO 11007KT 10SM CLR 20/09 A2981 RMK AO2 SLP084 T02000094
TAF:KCDR 022325Z 0300/0324 18008KT P6SM SKC
FM030200 19013KT P6SM FEW200
FM030800 21009KT P6SM FEW200
FM031800 25010G16KT P6SM FEW200

Related Locations
Nearby:
Farthest:RRG: 10658 mi / 17152 km
Plaine Corail, Rodrigues Island, MU

Find:

   beyond  
but within

Other Information
Maps:
NOTAMs:
Links:
Sources:

  
flag of United States
flag of Nebraska
  

Sectional Chart

Flight Planning
at skyvector.com

Satellite Image

Google Maps Satellite View

 

Copyright © 2004-2014 Karl L. Swartz. All rights reserved.
The Great Circle Mapper name and logo are trademarks of the Great Circle Mapper.
All other trademarks mentioned herein belong to their respective owners.
Please see credits for attibutions and further copyright information.

  Follow gcmap on Facebook Follow gcmap on Twitter

hCard Microformat

Geo Microformat